Regional Weather Roundup
Issued by NWS

Home | Current Version | Previous Version | Text Only | Print | Product List | Glossary Off
Versions: 1 2 3 4 5 6 7 8 9 10 11 12 13 14 15 16 17 18 19 20 21 22 23 24 25 26 27 28 29 30 31 32 33 34 35 36 37 38 39 40 41 42 43 44 45 46 47 48 49 50

000
ASUS43 KLSX 030459
RWRMO

WEATHER SUMMARY FOR MISSOURI
NATIONAL WEATHER SERVICE SPRINGFIELD MO
1200 AM CDT WED JUN 03 2015

NOTE: "FAIR" INDICATES FEW OR NO CLOUDS BELOW 12,000 FEET WITH NO
       SIGNIFICANT WEATHER AND/OR OBSTRUCTIONS TO VISIBILITY.
       CURRENT SKY AND/OR WEATHER CONDITIONS ARE NOT AVAILABLE FOR
       CHILLICOTHE AND FARMINGTON.

MOZ001>031-035>038-043-044-053-054-030600-
...NORTHERN AND WESTERN MISSOURI...

CITY           SKY/WX    TMP DP  RH WIND       PRES   REMARKS
KANSAS CTY INT MOCLDY    67  59  75 SE12      29.96S
KANSAS C DTWN  PTCLDY    69  58  67 SE8       29.96R
LEE`S SUMMIT   PTCLDY    66  59  78 SE7       29.98S
ST JOSEPH      MOCLDY    67  58  72 SE8       29.95R
CHILLICOTHE      N/A     66  57  72 SE6       29.99F
KIRKSVILLE     PTCLDY    57  56  96 S6        30.03R

$$
MOZ066>068-077>081-088>096-101>105-030600-
...SOUTHWEST MISSOURI...

CITY           SKY/WX    TMP DP  RH WIND       PRES   REMARKS
SPRINGFIELD    CLEAR     66  58  75 SE9       30.00F
JOPLIN         CLEAR     69  64  84 SE7       29.97S

$$
MOZ032>034-039>042-045>050-055>058-069>072-030600-
...CENTRAL MISSOURI...

CITY           SKY/WX    TMP DP  RH WIND       PRES   REMARKS
COLUMBIA       CLEAR     58  56  93 SE6       30.03S
JEFFERSON CITY CLEAR     59  56  89 CALM      30.03S
ROLLA          CLEAR     57  55  93 SE9       30.03S
SEDALIA        PTCLDY    62  56  80 SE9       30.02S
OSAGE BEACH    CLEAR     59  55  88 SE6       30.03S

$$
MOZ051-052-059>065-030600-
...EAST CENTRAL MISSOURI...

CITY           SKY/WX    TMP DP  RH WIND       PRES   REMARKS
ST LOUIS INTL  PTCLDY    64  56  75 SE7       30.06S
SPIRIT OF STL  CLEAR     57  57 100 CALM      30.05S FOG
ST CHARLES     CLEAR     60  56  86 E3        30.05S

$$
MOZ072>076-082>087-097>100-106>115-030600-
...SOUTH CENTRAL AND SOUTHEAST MISSOURI...

CITY           SKY/WX    TMP DP  RH WIND       PRES   REMARKS
CAPE GIRARDEAU CLOUDY    62  60  93 E5        30.05F
FARMINGTON     CLOUDY    61  55  82 SE5       30.10S
POPLAR BLUFF   CLOUDY    63  58  83 E5        30.04F
WEST PLAINS    CLEAR     57  54  89 SE5       30.06F

$$


USA.gov is the U.S. government's official web portal to all federal, state and local government web resources and services.